sat.trackr.live / text

‹ back to catalog

STARLINK-1333

NORAD 45580 · 2020-025BB

PAYLOAD ACTIVE UNKNOWN

§ Identity

Operator
Country
US
Launch date
2020-04-22
Launch site
AFETR
Launch vehicle
Mass (kg)
RCS (m²)

Purposes: comms

External: N2YO · Heavens-Above · Gunter

§ Orbital elements

Epoch: 2026-05-25T02:52:45.833952Z

Period
93.88 min
Inclination
53.1556°
Eccentricity
0.0003237
Mean motion
15.33810395 rev/d
Perigee alt
462.2 km
Apogee alt
466.7 km
Semi-major
6,842.6 km
B*
1.2272e-3
RAAN
82.1727°
Arg perigee
86.1309°
Mean anomaly
274.0064°
Rev number
33,721

§ Raw data

STARLINK-13331 45580U 20025BB  26145.11997493  .00040546  00000+0  12272-2 0  99962 45580  53.1556  82.1727 0003237  86.1309 274.0064 15.33810395337215

JSON: /api/v1/satellites/45580 · /tle

For live sub-satellite position, see the globe view (requires WebGL).

§ Visibility from observer

Set your observer location to see the next 7 days of passes ≥ 10°. The values pass through the URL so the page stays shareable.

No JS? Fill the form by hand. The geolocation button needs JavaScript.